Regional Weather Roundup
Issued by NWS Upton, NY

Home | Current Version | Previous Version | Text Only | Print | Product List | Glossary On
Versions: 1 2 3 4 5 6 7 8 9 10 11 12 13 14 15 16 17 18 19 20 21 22 23 24 25 26 27 28 29 30 31 32 33 34 35 36 37 38 39 40 41 42 43 44 45 46 47 48 49 50
287
ASUS41 KOKX 291808
RWROKX

REGIONAL WEATHER ROUNDUP
NATIONAL WEATHER SERVICE NEW YORK NY
200 PM EDT WED MAR 29 2017

NOTE: "FAIR" INDICATES FEW OR NO CLOUDS BELOW 12,000 FEET WITH NO
SIGNIFICANT WEATHER AND/OR OBSTRUCTIONS TO VISIBILITY.

NYZ071-072-176-178-NJZ106-104-291900-
NEW YORK CITY METRO AREA

CITY           SKY/WX    TMP DP  RH WIND       PRES   REMARKS
Central Park   SUNNY     58  31  35 MISG      30.08F
Wall St Helipt CLEAR     59  32  36 VRB3      30.06F
LaGuardia APRT MOSUNNY   57  33  40 NW13      30.05S
Kennedy INTL   MOSUNNY   59  35  40 NW22      30.06S
Breezy Point     N/A     55 N/A N/A NW12G20     N/A
Newark/Liberty MOSUNNY   58  29  33 NW18G30   30.06S
Teterboro      SUNNY     56  34  43 NW17G26   30.05S
$$

NYZ177-179-078>081-291900-
LONG ISLAND NEW YORK

CITY           SKY/WX    TMP DP  RH WIND       PRES   REMARKS
Jones Beach      N/A     52 N/A N/A NW16G22     N/A
Matinecock PT    N/A     54 N/A N/A N9          N/A
Farmingdale    SUNNY     55  35  47 NW17      30.04F
MacArthur/ISP  MOSUNNY   53  34  48 N18G29    30.04S
Shirley        MOSUNNY   53  37  54 NW18      30.05R
Westhampton    SUNNY     53  33  46 NW17      30.04S
East Hampton     N/A     52  33  47 N14G20    30.01S
Montauk          N/A     50  36  58 NE7       30.02F
$$

NYZ052-065-067-291900-
HUDSON VALLEY

CITY           SKY/WX    TMP DP  RH WIND       PRES   REMARKS
White Plains   MOSUNNY   55  32  41 NW18G28   30.04S
Newburgh       MOSUNNY   55  32  41 NW14      30.08F
Montgomery     SUNNY     55  30  38 NW15G28   30.07S
Poughkeepsie   SUNNY     53  31  42 N9        30.07F
Albany         PTSUNNY   46  33  60 CALM      30.13F
$$

NJZ001-105-106-008-010-013-015-019>022-104-291900-
NEW JERSEY

CITY           SKY/WX    TMP DP  RH WIND       PRES   REMARKS
Newark/Liberty MOSUNNY   58  29  33 NW18G30   30.06S
Teterboro      SUNNY     56  34  43 NW17G26   30.05S
Caldwell       SUNNY     57  30  35 NW15G22   30.07F
Somerville     SUNNY     57  30  35 NW14G23   30.06F
Linden           N/A     58  31  35 NW16      30.07S
Sussex         SUNNY     53  30  41 N12G25    30.09F
Andover          N/A     53  30  41 N12G18    30.08F
Trenton        SUNNY     58  34  40 N20       30.06F
Millville      SUNNY     59  37  44 N13G20    30.07F
Atlantic City  SUNNY     59  35  40 N13G24    30.06F
Wrightstown    SUNNY     58  35  41 NW16      30.04F
Toms River     SUNNY     57  35  43 NW10      30.06F
Belmar         SUNNY     58  34  40 NW14      30.07F
$$

PAZ047>061-062-071-291900-
EASTERN PENNSYLVANIA

CITY           SKY/WX    TMP DP  RH WIND       PRES   REMARKS
Philadelphia   SUNNY     59  32  36 N14G24    30.08F
Allentown      SUNNY     57  32  38 NW15      30.10F
Scranton       PTSUNNY   51  31  46 N16G25    30.15S
$$

CTZ002-004>006-009-010-012-RIZ004-006-007-MAZ004-011-015-291900-
SOUTHERN NEW ENGLAND
 IN CT

CITY           SKY/WX    TMP DP  RH WIND       PRES   REMARKS
Bradley INTL   MOSUNNY   52  29  41 NW18G26   30.05R
Hartford       PTSUNNY   53  32  44 N13G22    30.04S
Danbury        MOSUNNY   52  35  52 N13       30.07S
Wtrbury/Oxford MOSUNNY   46  30  53 N15G24    30.06R
Bridgeport     SUNNY     54  33  45 NW17G26   30.04S
Meriden        MOSUNNY   54  32  43 NW15G25   30.04R
New Haven      MOSUNNY   54  34  46 NW16G24   30.03S
Chester        NOT AVBL
Groton         MOSUNNY   57  33  40 NW14      30.00S
Wilimantic     CLOUDY    51  33  50 NE9       30.02F

 IN RI

CITY           SKY/WX    TMP DP  RH WIND       PRES   REMARKS
Providence     PTSUNNY   49  33  54 NW12G21   30.02S
Block Island     N/A     45  38  76 NE12      30.02S
Westerly       PTSUNNY   54  35  48 N13G21    30.01F
 IN MA

CITY           SKY/WX    TMP DP  RH WIND       PRES   REMARKS
Boston         CLOUDY    47  36  65 NW12      30.02S
Worcester      CLOUDY    44  27  51 NW17G26   30.01S
Westfield      MOSUNNY   50  29  44 N15G26    30.05R
Provincetown   MOSUNNY   42  36  79 N15       30.01S
Nantucket      CLOUDY    45  36  70 N22G32    29.98R
$$

ANZ330-335-338-340-345-350-353-355-291900-
COASTAL MARINE OBSERVATIONS


STATION/POSITION TIME  SKY/WX   TEMP    WIND        PRES    VSBY  WAVE
                                AIR SEA DIR/SP/G                  HT/PER
                 (UTC)          (F)     (DEG/KT/KT) (MB)    (MI)  (FT/S)
NY HARB ENTRANCE 1650            45 42  300/  8/ 10 1018.3          3/10
20 S FIRE ISLAND 1750            44 42  330/  8/ 10 1017.6          3/10
GREAT SOUTH BAY  NOT AVBL
23 SSW MONTAUK P 1650            43 42              1017.1          3/ 5
15 E BARNEGAT LI 1730               44                N/A           3/ 6
HUDSON CANYON    1650            44 43  350/ 14/ 17 1017.3          5/ 6
KINGS POINT      1736            48 40              1017.6
EXECUTION ROCKS  NOT AVBL
CENTRAL LI SOUND 1700            46     340/  4/  6   N/A           1/ 3
EASTERN LI SOUND NOT AVBL
ROBBINS REEF     1736            54     340/ 17/ 22 1017.9
$$


>>>>>>>>>>>>>>>>>>>>>>>>>>>> KEY <<<<<<<<<<<<<<<<<<<<<<<<<<<
>                                                          <
>     SKY/WX - Sky Condition/Present Weather               <
>     TMP    - Temperature in Fahrenheit                   <
>     DP     - Dew Point in Fahrenheit                     <
>     RH     - Relative Humidity in Percent                <
>     WIND   - Direction (from) and Speed in MPH           <
>     PRES   - Mean Sea Level Pressure (inches of Hg)      <
>     WCI    - Wind Chill Index                            <
>     VSB    - VISIBILITY IN MILES                         <
>     HX     - HEAT INDEX                                  <
>     TC     - TEMPERATURE IN CELSIUS                      <
>     VRB    - VARIABLE WIND DIRECTION                     <
>                                                          <
>>>>>>>>>>>>>>>>>>>>>>>>>>>> KEY <<<<<<<<<<<<<<<<<<<<<<<<<<<




USA.gov is the U.S. government's official web portal to all federal, state and local government web resources and services.